When you browse on this site, cookies collect data to enhance your experience and personalize the content and advertising you see.
Visit our Privacy Policy to learn more. By continuing to use the site, you agree to this use of cookies and data.
  • en France
  • Liste des pays
  • À 7 jours
  • Température de l'eau
  • Carte satellitaire
  • Carte météo
  • Widgets météo
  • user-avatar
    Se connecter

    Météo par heure à Krasnogorodsk

    Ce jour, 20 Novembre, Mardi

    Heure Température Précipitation Vent Pression Humidité
    00:00 -3°C° 0 mm 2 m/s 768 mmHg 84%
    01:00 -1°C° 0 mm 1 m/s 768 mmHg 85%
    02:00 -2°C° 0 mm 1 m/s 767 mmHg 88%
    03:00 -2°C° 0 mm 1 m/s 767 mmHg 89%
    04:00 -2°C° 0 mm 1 m/s 767 mmHg 89%
    05:00 -3°C° 0 mm 1 m/s 767 mmHg 89%
    06:00 -3°C° 0 mm 1 m/s 766 mmHg 89%
    07:00 -3°C° 0 mm 1 m/s 766 mmHg 89%
    08:00 -4°C° 0 mm 0 m/s 766 mmHg 88%
    09:00 -3°C° 0 mm 0 m/s 766 mmHg 83%
    10:00 -2°C° 0 mm 0 m/s 765 mmHg 78%
    11:00 -1°C° 0 mm 0 m/s 765 mmHg 73%
    12:00 -1°C° 0 mm 0 m/s 765 mmHg 71%
    13:00 0°C° 0 mm 1 m/s 765 mmHg 69%
    14:00 +1°C° 0 mm 1 m/s 765 mmHg 67%
    15:00 0°C° 0 mm 1 m/s 764 mmHg 71%
    16:00 -1°C° 0 mm 1 m/s 764 mmHg 74%
    17:00 -1°C° 0 mm 1 m/s 764 mmHg 78%
    18:00 -1°C° 0 mm 1 m/s 764 mmHg 78%
    19:00 -1°C° 0 mm 1 m/s 764 mmHg 78%
    20:00 -1°C° 0 mm 1 m/s 763 mmHg 78%
    21:00 -1°C° 0 mm 1 m/s 763 mmHg 79%
    22:00 -1°C° 0 mm 1 m/s 763 mmHg 79%
    23:00 -1°C° 0 mm 1 m/s 763 mmHg 79%

    Demain, 21 Novembre, Mercredi

    Heure Température Précipitation Vent Pression Humidité
    00:00 -1°C° 0 mm 1 m/s 763 mmHg 81%
    01:00 -1°C° 0 mm 1 m/s 763 mmHg 83%
    02:00 -1°C° 0 mm 1 m/s 764 mmHg 85%
    03:00 -1°C° 0 mm 1 m/s 764 mmHg 87%
    04:00 -1°C° 0 mm 1 m/s 763 mmHg 89%
    05:00 0°C° 0 mm 1 m/s 763 mmHg 91%
    06:00 0°C° 0 mm 1 m/s 764 mmHg 91%
    07:00 0°C° 0 mm 1 m/s 764 mmHg 92%
    08:00 0°C° 0 mm 1 m/s 764 mmHg 93%
    09:00 +1°C° 0 mm 1 m/s 764 mmHg 90%
    10:00 +1°C° 0 mm 1 m/s 764 mmHg 87%
    11:00 +2°C° 0 mm 1 m/s 764 mmHg 84%
    12:00 +2°C° 0 mm 1 m/s 764 mmHg 83%
    13:00 +2°C° 0 mm 1 m/s 764 mmHg 81%
    14:00 +2°C° 0 mm 1 m/s 764 mmHg 80%
    15:00 +1°C° 0 mm 1 m/s 764 mmHg 84%
    16:00 0°C° 0 mm 1 m/s 764 mmHg 88%
    17:00 -1°C° 0 mm 1 m/s 764 mmHg 92%
    18:00 -1°C° 0 mm 1 m/s 764 mmHg 93%
    19:00 -1°C° 0 mm 1 m/s 764 mmHg 94%
    20:00 -1°C° 0 mm 1 m/s 764 mmHg 95%
    21:00 -1°C° 0 mm 1 m/s 764 mmHg 95%
    22:00 -2°C° 0 mm 1 m/s 764 mmHg 94%
    23:00 -2°C° 0 mm 1 m/s 764 mmHg 94%

    Après-demain, 22 Novembre, Jeudi

    Heure Température Précipitation Vent Pression Humidité
    00:00 -2°C° 0 mm 1 m/s 764 mmHg 95%
    01:00 -2°C° 0 mm 1 m/s 763 mmHg 95%
    02:00 -4°C° 0 mm 2 m/s 763 mmHg 95%
    03:00 -4°C° 0 mm 2 m/s 763 mmHg 94%
    04:00 -4°C° 0 mm 2 m/s 763 mmHg 94%
    05:00 -4°C° 0 mm 2 m/s 762 mmHg 93%
    06:00 -4°C° 0 mm 2 m/s 762 mmHg 93%
    07:00 -4°C° 0 mm 2 m/s 762 mmHg 92%
    08:00 -4°C° 0 mm 2 m/s 762 mmHg 91%
    09:00 -4°C° 0 mm 3 m/s 761 mmHg 87%
    10:00 -2°C° 0 mm 3 m/s 761 mmHg 83%
    11:00 -2°C° 0 mm 3 m/s 761 mmHg 78%
    12:00 -1°C° 0 mm 3 m/s 761 mmHg 78%
    13:00 -2°C° 0 mm 4 m/s 760 mmHg 78%
    14:00 -2°C° 0 mm 4 m/s 760 mmHg 78%
    15:00 -2°C° 0 mm 4 m/s 760 mmHg 82%
    16:00 -1°C° 0 mm 3 m/s 760 mmHg 86%
    17:00 -2°C° 0 mm 3 m/s 760 mmHg 90%
    18:00 -1°C° 0 mm 3 m/s 760 mmHg 88%
    19:00 -1°C° 0 mm 3 m/s 760 mmHg 87%
    20:00 0°C° 0 mm 3 m/s 760 mmHg 85%
    21:00 -1°C° 0 mm 3 m/s 760 mmHg 87%
    22:00 -1°C° 0 mm 3 m/s 760 mmHg 89%
    23:00 -1°C° 0 mm 2 m/s 760 mmHg 91%

    23 Novembre, Vendredi

    Heure Température Précipitation Vent Pression Humidité
    00:00 -1°C° 0 mm 2 m/s 761 mmHg 92%
    01:00 -1°C° 0 mm 2 m/s 761 mmHg 93%
    02:00 -2°C° 0 mm 2 m/s 761 mmHg 95%
    03:00 -2°C° 0 mm 2 m/s 761 mmHg 95%
    04:00 +1°C° 0 mm 1 m/s 761 mmHg 94%
    05:00 +1°C° 0 mm 1 m/s 761 mmHg 94%
    06:00 +1°C° 0 mm 1 m/s 762 mmHg 94%
    07:00 +1°C° 0 mm 1 m/s 762 mmHg 94%
    08:00 +1°C° 0 mm 1 m/s 762 mmHg 94%
    09:00 +1°C° 0 mm 1 m/s 762 mmHg 92%
    10:00 -1°C° 0 mm 2 m/s 762 mmHg 90%
    11:00 +1°C° 0 mm 2 m/s 762 mmHg 88%
    12:00 +1°C° 0 mm 2 m/s 762 mmHg 87%
    13:00 +1°C° 0 mm 2 m/s 762 mmHg 86%
    14:00 +1°C° 0 mm 2 m/s 761 mmHg 86%
    15:00 0°C° 0 mm 3 m/s 761 mmHg 86%
    16:00 -1°C° 0 mm 3 m/s 761 mmHg 87%
    17:00 -1°C° 0 mm 3 m/s 761 mmHg 87%
    18:00 -1°C° 0 mm 3 m/s 761 mmHg 87%
    19:00 -1°C° 0 mm 3 m/s 760 mmHg 87%
    20:00 -1°C° 0 mm 3 m/s 760 mmHg 86%
    21:00 -1°C° 0 mm 3 m/s 760 mmHg 86%
    22:00 -2°C° 0 mm 3 m/s 759 mmHg 86%
    23:00 -2°C° 0 mm 3 m/s 759 mmHg 86%

    24 Novembre, Samedi

    Heure Température Précipitation Vent Pression Humidité
    00:00 -2°C° 0 mm 3 m/s 758 mmHg 86%
    01:00 -4°C° 0 mm 3 m/s 758 mmHg 86%
    02:00 -4°C° 0 mm 3 m/s 758 mmHg 86%
    03:00 -4°C° 0 mm 3 m/s 757 mmHg 85%
    04:00 -5°C° 0 mm 3 m/s 757 mmHg 84%
    05:00 -5°C° 0 mm 3 m/s 756 mmHg 83%
    06:00 -5°C° 0 mm 3 m/s 756 mmHg 83%
    07:00 -5°C° 0 mm 3 m/s 755 mmHg 83%
    08:00 -5°C° 0 mm 3 m/s 755 mmHg 83%
    09:00 -4°C° 0 mm 3 m/s 755 mmHg 81%
    10:00 -4°C° 0 mm 3 m/s 755 mmHg 80%
    11:00 -2°C° 0 mm 3 m/s 755 mmHg 78%
    12:00 -2°C° 0 mm 3 m/s 755 mmHg 78%
    13:00 -2°C° 0 mm 2 m/s 754 mmHg 78%
    14:00 -1°C° 0 mm 2 m/s 754 mmHg 78%
    15:00 -2°C° 0 mm 2 m/s 754 mmHg 80%
    16:00 -2°C° 0 mm 2 m/s 754 mmHg 81%
    17:00 -2°C° 0 mm 2 m/s 754 mmHg 83%
    18:00 -2°C° 0 mm 2 m/s 754 mmHg 84%
    19:00 0°C° 0 mm 1 m/s 754 mmHg 84%
    20:00 0°C° 0 mm 1 m/s 754 mmHg 85%
    21:00 0°C° 0 mm 1 m/s 754 mmHg 86%
    22:00 0°C° 0 mm 1 m/s 755 mmHg 88%
    23:00 0°C° 0 mm 1 m/s 755 mmHg 89%

    25 Novembre, Dimanche

    Heure Température Précipitation Vent Pression Humidité
    00:00 0°C° 0 mm 1 m/s 755 mmHg 90%
    01:00 0°C° 0 mm 1 m/s 755 mmHg 90%
    02:00 0°C° 0 mm 1 m/s 755 mmHg 91%
    03:00 0°C° 0 mm 1 m/s 755 mmHg 91%
    04:00 0°C° 0 mm 1 m/s 755 mmHg 91%
    05:00 0°C° 0 mm 1 m/s 755 mmHg 91%
    06:00 0°C° 0 mm 1 m/s 755 mmHg 91%
    07:00 0°C° 0 mm 1 m/s 755 mmHg 91%
    08:00 0°C° 0 mm 1 m/s 755 mmHg 91%
    09:00 0°C° 0 mm 1 m/s 755 mmHg 88%
    10:00 +1°C° 0 mm 1 m/s 756 mmHg 85%
    11:00 +1°C° 0 mm 1 m/s 756 mmHg 82%
    12:00 +1°C° 0 mm 1 m/s 756 mmHg 82%
    13:00 +1°C° 0 mm 1 m/s 755 mmHg 81%
    14:00 +1°C° 0 mm 1 m/s 755 mmHg 81%
    15:00 0°C° 0 mm 1 m/s 755 mmHg 83%
    16:00 0°C° 0 mm 1 m/s 755 mmHg 85%
    17:00 -1°C° 0 mm 1 m/s 755 mmHg 88%
    18:00 -1°C° 0 mm 1 m/s 755 mmHg 87%
    19:00 -1°C° 0 mm 1 m/s 755 mmHg 86%
    20:00 -1°C° 0 mm 1 m/s 755 mmHg 85%
    21:00 -2°C° 0 mm 0 m/s 755 mmHg 85%
    22:00 -2°C° 0 mm 0 m/s 754 mmHg 85%
    23:00 -3°C° 0 mm 0 m/s 754 mmHg 85%
    Voir plus